Location: Jackson
(42.2460°N, 84.4010°W)
Time: 18:19:44
(UTC-05:00)

BlueWalker 3 - Pass Details

Date: 25 January 2026
Orbit: 450 x 461 km, 53.2° (Epoch: 14 February)

Event Time Altitude Azimuth Distance (km) Brightness Sun altitude
Rises 19:27:39 0° 274° (W) 2,453 6.9 -19.3°
Reaches altitude 10° 19:30:11 10° 292° (WNW) 1,582 5.3 -19.8°
Maximum altitude 19:32:53 20° 342° (NNW) 1,105 3.7 -20.3°
Enters shadow 19:33:31 19° 357° (N) 1,136 3.7 -20.4°
